Jackson Hawkins Field, MS

9:48 PM CST on December 12, 2017 (GMT -0600)
Hawkins

Weather History for KHKS - September, 2013

Change the Weather History Date:

Thursday, September 19, 2013

  Actual Average (KJAN) Record (KJAN)
Temperature  
Mean Temperature 84 °F -  
Max Temperature 95 °F 86 °F 105 °F (1925)
Min Temperature 73 °F 64 °F 43 °F (1981)
Cooling Degree Days 19    
Growing Degree Days 34 (Base 50)    
Moisture  
Dew Point 69 °F    
Average Humidity 68    
Maximum Humidity 87    
Minimum Humidity 40    
Precipitation  
Precipitation 0.00 in - - ()
Sea Level Pressure  
Sea Level Pressure 30.01 in    
Wind  
Wind Speed 8 mph (SE)    
Max Wind Speed 21 mph    
Max Gust Speed 29 mph    
Visibility 10 miles    
Events      
Averages and records for this station are not official NWS values.
T = Trace of Precipitation, MM = Missing Value Source: NWS Daily Summary

Daily Weather History Graph

Daily Weather History Graph

Search for Another Location

Airport or City:

Trip Planner

Search our weather history database for the weather conditions in past years. The results will help you decide how hot, cold, wet, or windy it might be!

Date:

Astronomy

Sep. 19, 2013 Rise Set
Actual Time 6:47 AM CDT 7:01 PM CDT
Civil Twilight 6:22 AM CDT 7:25 PM CDT
Nautical Twilight 5:54 AM CDT 7:54 PM CDT
Astronomical Twilight 5:25 AM CDT 8:23 PM CDT
Moon 7:04 PM CDT (9/19) 6:53 AM CDT (9/19)
Length of Visible Light 13h 02m
Length of Day
12h 13m
Full, 100% of the Moon is Illuminated
Sep 19
Full
Sep 26
Last Quarter
Oct 4
New
Oct 11
First Quarter
Oct 18
Full

Hourly Weather History & Observations

Time (CDT) Temp. Heat Index Dew Point Humidity Pressure Visibility Wind Dir Wind Speed Gust Speed Precip Events Conditions
12:53 AM 77.0 °F - 70.0 °F 79% 30.03 in 10.0 mi SE 6.9 mph - N/A   Clear
1:53 AM 75.9 °F - 70.0 °F 82% 30.03 in 10.0 mi ESE 6.9 mph - N/A   Clear
2:53 AM 75.0 °F - 69.1 °F 82% 30.01 in 10.0 mi SE 5.8 mph - N/A   Clear
3:53 AM 73.9 °F - 69.1 °F 85% 30.01 in 10.0 mi ESE 5.8 mph - N/A   Clear
4:53 AM 73.9 °F - 69.1 °F 85% 30.01 in 10.0 mi ESE 5.8 mph - N/A   Clear
5:53 AM 73.9 °F - 68.0 °F 82% 30.03 in 10.0 mi ESE 5.8 mph - N/A   Clear
6:53 AM 73.0 °F - 68.0 °F 84% 30.04 in 9.0 mi ESE 5.8 mph - N/A   Clear
7:53 AM 75.0 °F - 69.1 °F 82% 30.05 in 10.0 mi ESE 6.9 mph - N/A   Clear
8:53 AM 79.0 °F - 69.1 °F 72% 30.05 in 10.0 mi SE 10.4 mph - N/A   Clear
9:53 AM 82.0 °F 85.9 °F 70.0 °F 67% 30.06 in 10.0 mi SE 10.4 mph - N/A   Clear
10:53 AM 87.1 °F 92.0 °F 70.0 °F 57% 30.06 in 10.0 mi SE 12.7 mph - N/A   Partly Cloudy
11:53 AM 89.1 °F 94.1 °F 70.0 °F 53% 30.05 in 10.0 mi South 8.1 mph - N/A   Partly Cloudy
12:53 PM 90.0 °F 94.5 °F 69.1 °F 50% 30.03 in 10.0 mi ESE 9.2 mph - N/A   Scattered Clouds
1:53 PM 91.9 °F 95.9 °F 68.0 °F 45% 30.00 in 10.0 mi South 5.8 mph - N/A   Partly Cloudy
2:53 PM 95.0 °F 99.0 °F 66.9 °F 40% 29.97 in 10.0 mi ESE 11.5 mph - N/A   Scattered Clouds
3:53 PM 91.9 °F 94.5 °F 66.0 °F 42% 29.95 in 10.0 mi East 10.4 mph - N/A   Mostly Cloudy
4:53 PM 93.0 °F 95.9 °F 66.0 °F 41% 29.94 in 10.0 mi ESE 10.4 mph - N/A   Clear
5:53 PM 90.0 °F 92.4 °F 66.0 °F 45% 29.94 in 10.0 mi ESE 10.4 mph - N/A   Clear
6:53 PM 84.0 °F 87.8 °F 69.1 °F 61% 29.97 in 10.0 mi South 20.7 mph 28.8 mph N/A   Overcast
7:53 PM 79.0 °F - 71.1 °F 77% 29.97 in 10.0 mi South 9.2 mph - N/A   Mostly Cloudy
8:53 PM 77.0 °F - 70.0 °F 79% 29.99 in 10.0 mi SSE 6.9 mph - N/A   Clear
9:53 PM 75.9 °F - 70.0 °F 82% 29.99 in 10.0 mi South 4.6 mph - N/A   Clear
10:53 PM 75.0 °F - 70.0 °F 84% 30.00 in 10.0 mi SSE 5.8 mph - N/A   Clear
11:53 PM 75.0 °F - 71.1 °F 87% 30.00 in 10.0 mi SSE 5.8 mph - N/A   Clear